Fairfield, OH

2:39 AM EST on December 11, 2016 (GMT -0500)
Butler County Regional

Weather History for KHAO - September, 2013

Change the Weather History Date:

Saturday, September 14, 2013

  Actual Average (KLUK) Record (KLUK)
Temperature  
Mean Temperature 56 °F -  
Max Temperature 72 °F 80 °F 96 °F (1998)
Min Temperature 41 °F 59 °F 40 °F (1964)
Degree Days  
Heating Degree Days 9    
Growing Degree Days 6 (Base 50)    
Moisture  
Dew Point 42 °F    
Average Humidity 68    
Maximum Humidity 93    
Minimum Humidity 31    
Precipitation  
Precipitation 0.00 in - - ()
Sea Level Pressure  
Sea Level Pressure 30.16 in    
Wind  
Wind Speed 2 mph (ENE)    
Max Wind Speed 8 mph    
Max Gust Speed -    
Visibility 10 miles    
Events      
Averages and records for this station are not official NWS values.
T = Trace of Precipitation, MM = Missing Value Source: NWS Daily Summary

Daily Weather History Graph

Daily Weather History Graph

Search for Another Location

Airport or City:

Trip Planner

Search our weather history database for the weather conditions in past years. The results will help you decide how hot, cold, wet, or windy it might be!

Date:

Astronomy

Sep. 14, 2013 Rise Set
Actual Time 7:18 AM EDT 7:47 PM EDT
Civil Twilight 6:51 AM EDT 8:14 PM EDT
Nautical Twilight 6:19 AM EDT 8:46 PM EDT
Astronomical Twilight 5:47 AM EDT 9:18 PM EDT
Moon 4:27 PM EDT (9/14) 1:50 AM EDT (9/14)
Length of Visible Light 13h 23m
Length of Day
12h 29m
Waxing Gibbous, 72% of the Moon is Illuminated
Sep 14
Waxing Gibbous
Sep 19
Full
Sep 26
Last Quarter
Oct 4
New
Oct 11
First Quarter

Hourly Weather History & Observations

Time (EDT) Temp. Dew Point Humidity Pressure Visibility Wind Dir Wind Speed Gust Speed Precip Events Conditions
12:53 AM 52.0 °F 43.0 °F 71% 30.12 in 10.0 mi NE 3.5 mph - N/A   Clear
1:53 AM 46.0 °F 43.0 °F 89% 30.12 in 10.0 mi Calm Calm - N/A   Clear
2:53 AM 44.1 °F 42.1 °F 93% 30.14 in 10.0 mi Calm Calm - N/A   Clear
3:53 AM 44.1 °F 42.1 °F 93% 30.15 in 10.0 mi Calm Calm - N/A   Clear
4:53 AM 42.1 °F 39.9 °F 92% 30.15 in 10.0 mi Calm Calm - N/A   Clear
5:53 AM 42.1 °F 39.9 °F 92% 30.15 in 10.0 mi Calm Calm - N/A   Clear
6:53 AM 41.0 °F 39.0 °F 93% 30.17 in 10.0 mi Calm Calm - N/A   Clear
7:53 AM 43.0 °F 41.0 °F 93% 30.19 in 10.0 mi Calm Calm - N/A   Clear
8:53 AM 51.1 °F 46.0 °F 83% 30.20 in 10.0 mi Calm Calm - N/A   Clear
9:53 AM 55.9 °F 45.0 °F 67% 30.21 in 10.0 mi ENE 8.1 mph - N/A   Clear
10:53 AM 60.1 °F 42.1 °F 51% 30.21 in 10.0 mi East 5.8 mph - N/A   Clear
11:53 AM 62.1 °F 42.1 °F 48% 30.20 in 10.0 mi ENE 4.6 mph - N/A   Clear
12:53 PM 66.0 °F 41.0 °F 40% 30.19 in 10.0 mi Variable 5.8 mph - N/A   Clear
1:53 PM 66.9 °F 41.0 °F 39% 30.18 in 10.0 mi Variable 6.9 mph - N/A   Clear
2:53 PM 68.0 °F 39.9 °F 36% 30.16 in 10.0 mi Variable 4.6 mph - N/A   Clear
3:53 PM 70.0 °F 41.0 °F 35% 30.13 in 10.0 mi East 4.6 mph - N/A   Clear
4:53 PM 71.1 °F 39.0 °F 31% 30.12 in 10.0 mi Calm Calm - N/A   Clear
5:53 PM 71.1 °F 41.0 °F 34% 30.12 in 10.0 mi Calm Calm - N/A   Clear
6:53 PM 70.0 °F 41.0 °F 35% 30.12 in 10.0 mi ENE 3.5 mph - N/A   Clear
7:53 PM 57.0 °F 48.0 °F 72% 30.13 in 10.0 mi Calm Calm - N/A   Clear
8:53 PM 53.1 °F 46.9 °F 80% 30.15 in 10.0 mi Calm Calm - N/A   Clear
9:53 PM 50.0 °F 46.0 °F 86% 30.15 in 10.0 mi Calm Calm - N/A   Clear
10:53 PM 48.0 °F 45.0 °F 89% 30.14 in 10.0 mi Calm Calm - N/A   Clear
11:53 PM 46.9 °F 44.1 °F 90% 30.14 in 10.0 mi Calm Calm - N/A   Clear